Weather in Bongaree

Australia     27°04′59″S   153°09′35″E
temp.,
°C
wind,
m/s
gust,
m/s
humid.,
%
clouds,
%
prec.,
mm/h
press.,
hPa
HPBL,
m
9 december, thu
thu901:00+23nw3578100 0.0 1010283
04:00+23wnw22800 0.0 1009245
07:00+22wsw22790 0.0 1011219
10:00+23ene22790 0.0 1010160
13:00+25ne55800 0.0 1008300
16:00+25ne1011832 1.6 1005332
19:00+26nne810850 0.0 1007333
22:00+26n910822 3.0 1008262
10 december, fri
fri1001:00+23wnw4482100 1.1 1007177
04:00+24nw227990 1.2 1007183
07:00+23nw45825 0.2 1009218
10:00+25n227441 0.4 1008177
13:00+26ene557698 0.5 1006157
16:00+25ene567651 5.7 1006183
19:00+24nne777696 1.7 1008291
22:00+24n55800 1.7 1009294
11 december, sat
sat1101:00+23sw23790 0.0 1008200
04:00+23ssw55620 0.0 1008287
07:00+23s66570 0.0 1011532
10:00+24sse88730 0.0 1011847
13:00+24se76680 0.0 1011806
16:00+24ese88690 0.0 1009973
19:00+24ese98691 0.0 10121087
22:00+24ese8769100 0.0 10131238
12 december, sun
sun1201:00+23se8873100 0.1 1012888
04:00+23se987497 0.4 1012850
07:00+23ese876976 0.1 10151061
10:00+23se666831 0.1 1014961
13:00+24se67720 0.1 1013933
16:00+24se76720 0.2 1012902
19:00+24ese99703 0.0 1013994
22:00+24ese88745 0.1 1014922
13 december, mon
mon1301:00+24ese88710 0.2 10121020
04:00+24se887065 0.2 10121260
07:00+24se7866100 0.1 10141345
10:00+24se7767100 0.2 10131073
13:00+24ese56676 0.1 10111052
16:00+24ese55691 0.1 1010904
19:00+24se77722 0.0 1011928
22:00+24se89714 0.0 1012930